Location: Chassagnes
(44.4047°N, 4.1657°E)
Time: 11:34:43
(UTC+00:00)

COSMO-SKYMED 1 - Pass Details

Date: 27 October 2020
Orbit: 621 x 623 km, 97.9° (Epoch: 24 November)

Event Time Altitude Azimuth Distance (km) Brightness Sun altitude
Rises 18:01:32 0° 11° (N) 2,913 5.9 -15.2°
Reaches altitude 10° 18:03:44 10° 10° (N) 2,002 5.0 -15.6°
Maximum altitude 18:08:05 75° 285° (WNW) 649 2.7 -16.4°
Drops below altitude 10° 18:12:23 10° 201° (SSW) 1,985 5.4 -17.2°
Sets 18:14:34 0° 199° (SSW) 2,886 6.3 -17.6°
